{"data":{"norad_id":57828,"epoch":"2026-05-25T02:04:16.830624Z","epoch_age_seconds":67883,"freshness":"FRESH","line1":"1 57828U 23138W   26145.08630591  .00000354  00000+0  22396-4 0  9994","line2":"2 57828  43.0036 162.5855 0001013 276.0506  84.0230 15.27578468150355","mean_motion":15.27578468,"eccentricity":0.0001013,"inclination_deg":43.0036,"raan_deg":162.5855,"arg_perigee_deg":276.0506,"mean_anomaly_deg":84.023,"bstar":2.2396e-5,"rev_number":15035,"period_min":94.266843253253,"perigee_km":482.35864478639,"apogee_km":483.74872201885,"semimajor_km":6861.1906834026,"source":"CELESTRAK","updated_at":"2026-05-25T13:38:18.412770Z"}}